User: anonymous   Login
Location: Aalen
(48.8330°N, 10.1000°E)
Time: 15:21:51
(UTC+02:00)
Language:

NOAA 15 - Orbit

View from above orbital plane
View from above orbital plane
View from above satellite
View from above satellite

Ground track
Ground track

The orbit data is extracted from the following two-line orbital elements,

1 25338U 98030A   21267.15678964  .00000042  00000-0  36002-4 0  9996
2 25338  98.6761 294.7685 0010249 359.8604   0.2571 14.26059334215316
Epoch (UTC): 24 September 2021 03:45:46
Eccentricity: 0.0010249
inclination: 98.6761°
perigee height: 797 km
apogee height: 812 km
right ascension of ascending node: 294.7685°
argument of perigee: 359.8604°
revolutions per day: 14.26059334
mean anomaly at epoch: 0.2571°
orbit number at epoch: 21531

The dashed part of the orbit path shows where the satellite is in the earth's shadow,  

DLR